STARLINK-11400, 63017

Orbit data source: Space-Track

STARLINK-11400, 63017 is a payload satellite owned by SpaceX/Seattle (US) in LEO that was launched on Sat, 15 Feb 2025 UTC via an FALCON 9 launch vehicle from the Air Force Eastern Test Range (AFETR). Payload-class satellites include a variety of spacecraft equipped with specific instruments for various scientific and technological missions. These include communications satellites like Starlink; space stations such as the ISS; scientific satellites like the Hubble; Earth observation satellites from companies like Planet Labs, Umbra, and HawkEye 360; GPS; miniature CubeSats for education and research; and military/defense satellites.

Loading next visibility...
Identifier
63017, 2025-032N
Orbit
LEO
Country
Flag of USUS
Related business
Manufacturer
SpaceX/Seattle
Mission
Operational Commercial Communications
Bus & Motor
STARLINK V2MD, Unknown motor
Mass
960 kg wet, ~910 kg dry
Launch date (UTC)
2025-02-15 (8 months ago)
Launch vehicle
FALCON 9
Launch site
Air Force Eastern Test Range (AFETR)
Object type
Payload
Rocket body
Debris
Shape & HBR
Box + 2 Pan, 18.1 m
Radar Cross Section
36.964 m², Large (>1 m²)

Expand to show TLE details & history
Last TLE update: 1 day ago

TLE from 1 day ago
0 STARLINK-11400
1 63017U 25032N   25301.00738974  .00379330  00000-0  27999-2 0  9991
2 63017  43.0001 275.3429 0002148 231.6705 128.3970 15.71068885 41349
Epoch: 2025-10-28T00:10Z
TLE epoch observation values (Epoch: 2025-10-28T00:10:38.473Z)
Latitude
-0.00001°
Longitude
-123.91848°
Altitude
356.511 km
Speed
7.697 km/s
True Right ascension
18h 21m 22s
True Declination
0° 00' 00"
Sunlit
Object was in daylight at epoch
Visualization orbit readout
Latitude
Unknown
Longitude
Unknown
Altitude
Unknown
Speed
Unknown
Apparent Right ascension
Unknown
Apparent Declination
Unknown
Sunlit
N/A
Visualization observer readout
Local Sidereal Time
23:58:00
Azimuth
Unknown
Elevation
Unknown
Doppler factor
Unknown
Orbital elements
Apogee altitude
359.27 km
Perigee altitude
356.376 km
Semi-major axis
6,735.96 km
Eccentricity
0.00021
Inclination
43.0001°
RAAN
275.3429°
Arg. of periapsis
231.6705°
True anomaly
128.41629°
Mean anomaly
128.397°
Eccentric anomaly
128.40664°
Mean motion
3.92594 °/min
Orbital period
91.7 mins
BSTAR
0.0027999
Loading maneuver chart data...
Computing Atmospheric mass density...
Loading historical data...
Loading historical data...
Loading historical data...
Loading historical data...
Loading historical data...
Loading historical data...
Loading historical data...

Documentation

Showing up to 5 results
|